TimeEDT,TemperatureF,Dew PointF,Humidity,Sea Level PressureIn,VisibilityMPH,Wind Direction,Wind SpeedMPH,Gust SpeedMPH,PrecipitationIn,Events,Conditions,WindDirDegrees,DateUTC
12:15 AM,54.7,51.6,89,30.25,10.0,Calm,Calm,-,N/A,,Clear,0,2013-08-17 04:15:00
12:35 AM,54.1,51.1,89,30.25,10.0,Calm,Calm,-,N/A,,Clear,0,2013-08-17 04:35:00
12:55 AM,53.4,50.4,89,30.25,10.0,Calm,Calm,-,N/A,,Clear,0,2013-08-17 04:55:00
1:15 AM,54.1,51.3,90,30.25,10.0,Calm,Calm,-,N/A,,Clear,0,2013-08-17 05:15:00
1:35 AM,53.8,51.1,91,30.26,10.0,Calm,Calm,-,N/A,,Clear,0,2013-08-17 05:35:00
1:55 AM,51.8,48.6,89,30.25,10.0,Calm,Calm,-,N/A,,Clear,0,2013-08-17 05:55:00
2:15 AM,50.7,48.0,90,30.26,10.0,Calm,Calm,-,N/A,,Clear,0,2013-08-17 06:15:00
2:35 AM,51.8,49.1,90,30.25,10.0,Calm,Calm,-,N/A,,Clear,0,2013-08-17 06:35:00
2:55 AM,51.6,48.9,90,30.25,10.0,Calm,Calm,-,N/A,,Clear,0,2013-08-17 06:55:00
3:15 AM,51.6,49.5,92,30.25,5.0,Calm,Calm,-,N/A,,Scattered Clouds,0,2013-08-17 07:15:00
3:35 AM,49.5,47.3,92,30.25,10.0,Calm,Calm,-,N/A,,Clear,0,2013-08-17 07:35:00
3:55 AM,49.8,47.7,92,30.25,5.0,Calm,Calm,-,N/A,,Clear,0,2013-08-17 07:55:00
4:15 AM,48.7,46.4,92,30.26,10.0,Calm,Calm,-,N/A,,Clear,0,2013-08-17 08:15:00
4:35 AM,50.0,47.7,92,30.26,10.0,Calm,Calm,-,N/A,,Clear,0,2013-08-17 08:35:00
4:55 AM,48.9,46.9,93,30.26,7.0,Calm,Calm,-,N/A,,Clear,0,2013-08-17 08:55:00
5:15 AM,49.6,47.5,92,30.25,10.0,Calm,Calm,-,N/A,,Clear,0,2013-08-17 09:15:00
5:35 AM,49.6,47.8,94,30.26,2.0,Calm,Calm,-,N/A,,Mostly Cloudy,0,2013-08-17 09:35:00
5:55 AM,48.0,46.2,93,30.26,4.0,Calm,Calm,-,N/A,,Mostly Cloudy,0,2013-08-17 09:55:00
6:15 AM,48.2,46.6,94,30.27,0.5,Calm,Calm,-,N/A,Fog,Fog,0,2013-08-17 10:15:00
6:35 AM,48.0,46.6,95,30.28,0.2,Calm,Calm,-,N/A,Fog,Fog,0,2013-08-17 10:35:00
6:55 AM,47.8,46.6,95,30.28,0.5,Calm,Calm,-,N/A,Fog,Fog,0,2013-08-17 10:55:00
7:15 AM,48.4,47.3,96,30.29,2.0,Calm,Calm,-,N/A,,Overcast,0,2013-08-17 11:15:00
7:35 AM,49.6,48.4,95,30.29,0.2,Calm,Calm,-,N/A,Fog,Fog,0,2013-08-17 11:35:00
7:55 AM,50.4,49.3,96,30.29,0.2,Calm,Calm,-,N/A,Fog,Fog,0,2013-08-17 11:55:00
8:15 AM,51.1,50.0,96,30.29,0.2,Calm,Calm,-,N/A,Fog,Fog,0,2013-08-17 12:15:00
8:35 AM,52.2,51.1,96,30.30,0.2,Calm,Calm,-,N/A,Fog,Fog,0,2013-08-17 12:35:00
8:55 AM,54.5,53.2,96,30.30,7.0,Calm,Calm,-,N/A,,Overcast,0,2013-08-17 12:55:00
9:15 AM,56.1,55.0,96,30.30,10.0,Calm,Calm,-,N/A,,Mostly Cloudy,0,2013-08-17 13:15:00
9:35 AM,58.3,57.0,96,30.30,10.0,Calm,Calm,-,N/A,,Scattered Clouds,0,2013-08-17 13:35:00
9:55 AM,61.0,55.6,82,30.31,10.0,Calm,Calm,-,N/A,,Mostly Cloudy,0,2013-08-17 13:55:00
10:15 AM,62.6,55.4,77,30.31,10.0,Calm,Calm,-,N/A,,Mostly Cloudy,0,2013-08-17 14:15:00
10:35 AM,64.2,55.2,73,30.31,10.0,Calm,Calm,-,N/A,,Scattered Clouds,0,2013-08-17 14:35:00
10:55 AM,66.6,55.6,68,30.30,10.0,Calm,Calm,-,N/A,,Clear,0,2013-08-17 14:55:00
11:15 AM,67.6,55.2,64,30.30,10.0,Calm,Calm,-,N/A,,Clear,0,2013-08-17 15:15:00
11:35 AM,69.6,55.4,61,30.29,10.0,Calm,Calm,-,N/A,,Clear,0,2013-08-17 15:35:00
11:55 AM,70.2,54.5,57,30.29,10.0,East,3.5,-,N/A,,Clear,90,2013-08-17 15:55:00
12:15 PM,71.1,53.2,53,30.29,10.0,Calm,Calm,-,N/A,,Scattered Clouds,0,2013-08-17 16:15:00
12:35 PM,72.5,50.7,46,30.29,10.0,SE,3.5,-,N/A,,Scattered Clouds,140,2013-08-17 16:35:00
12:55 PM,72.7,52.5,49,30.28,10.0,NE,6.9,-,N/A,,Mostly Cloudy,50,2013-08-17 16:55:00
1:15 PM,72.3,52.3,49,30.28,10.0,East,6.9,-,N/A,,Overcast,90,2013-08-17 17:15:00
1:35 PM,73.2,51.4,46,30.28,10.0,East,3.5,-,N/A,,Overcast,100,2013-08-17 17:35:00
1:55 PM,72.5,51.4,47,30.28,10.0,East,3.5,-,N/A,,Overcast,80,2013-08-17 17:55:00
2:15 PM,73.0,51.3,46,30.27,10.0,East,4.6,-,N/A,,Overcast,80,2013-08-17 18:15:00
2:35 PM,74.7,51.1,44,30.27,10.0,East,9.2,-,N/A,,Overcast,80,2013-08-17 18:35:00
2:55 PM,74.7,48.9,40,30.26,10.0,East,5.8,-,N/A,,Scattered Clouds,100,2013-08-17 18:55:00
3:15 PM,76.1,50.0,40,30.25,10.0,ESE,5.8,-,N/A,,Clear,110,2013-08-17 19:15:00
3:35 PM,75.2,49.3,40,30.25,10.0,East,9.2,-,N/A,,Scattered Clouds,90,2013-08-17 19:35:00
3:55 PM,76.5,49.8,39,30.24,10.0,ENE,6.9,-,N/A,,Overcast,70,2013-08-17 19:55:00
4:15 PM,74.8,50.7,43,30.24,10.0,East,6.9,-,N/A,,Overcast,90,2013-08-17 20:15:00
4:35 PM,74.3,50.7,43,30.24,10.0,ESE,5.8,-,N/A,,Overcast,110,2013-08-17 20:35:00
4:55 PM,73.6,52.3,47,30.25,10.0,ENE,6.9,-,N/A,,Overcast,60,2013-08-17 20:55:00
5:15 PM,73.6,53.8,50,30.25,10.0,ENE,4.6,-,N/A,,Overcast,70,2013-08-17 21:15:00
5:35 PM,72.9,52.7,49,30.25,10.0,ESE,5.8,-,N/A,,Overcast,120,2013-08-17 21:35:00
5:55 PM,72.3,53.4,51,30.25,10.0,East,6.9,-,N/A,,Overcast,90,2013-08-17 21:55:00
6:15 PM,71.6,54.3,54,30.25,10.0,East,5.8,-,N/A,,Overcast,100,2013-08-17 22:15:00
6:35 PM,70.9,54.0,55,30.25,10.0,East,4.6,-,N/A,,Overcast,90,2013-08-17 22:35:00
6:55 PM,70.7,53.8,55,30.25,10.0,East,5.8,-,N/A,,Overcast,90,2013-08-17 22:55:00
7:15 PM,70.0,53.8,56,30.25,10.0,East,3.5,-,N/A,,Overcast,90,2013-08-17 23:15:00
7:35 PM,69.6,54.7,59,30.25,10.0,East,3.5,-,N/A,,Overcast,90,2013-08-17 23:35:00
7:55 PM,69.3,54.5,59,30.26,10.0,Calm,Calm,-,N/A,,Overcast,0,2013-08-17 23:55:00
8:15 PM,68.9,54.9,61,30.26,10.0,Calm,Calm,-,N/A,,Overcast,0,2013-08-18 00:15:00
8:35 PM,68.4,55.2,63,30.26,10.0,East,3.5,-,N/A,,Overcast,90,2013-08-18 00:35:00
8:55 PM,68.2,54.9,62,30.26,10.0,Calm,Calm,-,N/A,,Overcast,0,2013-08-18 00:55:00
9:15 PM,68.0,55.4,64,30.27,10.0,Calm,Calm,-,N/A,,Overcast,0,2013-08-18 01:15:00
9:35 PM,68.0,54.9,63,30.28,10.0,Calm,Calm,-,N/A,,Overcast,0,2013-08-18 01:35:00
9:55 PM,68.0,54.1,61,30.28,10.0,East,3.5,-,N/A,,Light Drizzle,90,2013-08-18 01:55:00
10:15 PM,67.1,53.4,61,30.27,10.0,Calm,Calm,-,N/A,,Light Drizzle,0,2013-08-18 02:15:00
10:35 PM,66.9,53.6,62,30.27,10.0,Calm,Calm,-,N/A,,Overcast,0,2013-08-18 02:35:00
10:55 PM,67.1,54.7,64,30.27,10.0,NNE,3.5,-,N/A,,Overcast,20,2013-08-18 02:55:00
11:15 PM,66.4,54.7,66,30.28,10.0,Calm,Calm,-,N/A,Rain,Light Rain,0,2013-08-18 03:15:00
11:35 PM,63.9,58.1,81,30.28,10.0,Calm,Calm,-,0.01,Rain,Light Rain,0,2013-08-18 03:35:00
11:55 PM,63.3,59.5,87,30.28,10.0,Calm,Calm,-,0.01,Rain,Light Rain,0,2013-08-18 03:55:00